GALAXY 18 (G-18)

Last updated on Fri Dec 19 2025 00:02:49 GMT+0000 (Coordinated Universal Time)

1 32951U 08024A 25352.60092823 .00000050 00000+0 00000+0 0 9994 2 32951 0.0173 21.6314 0002822 249.7503 269.4101 1.00270842 44043
UTC large
Height (km)
Speed (km/s)
/
Latitude / Longitude
Inclination (degrees)
Orbital Period (minutes)
Azimuth
Elevation
Range (km)
Doppler Factor

Next 0 passes for location: London (51.5072 / 0.1276)

Sorry there are no passes over London.